Starlink 6327

operational
NORAD ID: 56522 Int'l Des: 2023-065 Owner: SPXS Country: US Constellation: starlink
LEOCIRCULAR

About Starlink 6327

Description loading...

Live Position

Loading 3D Globe...

Upcoming Passes

Altitude History

Altitude vs Time

uPlot chart will show altitude changes over time

Two-Line Element Set

1 56522U 23065V 25312.61734240 .00000359 00000-0 41660-4 0 9994
2 56522 43.0038 148.0957 0001349 263.9227 96.1462 15.02534563138411
Epoch: Nov 8, 2025 • Age: 62 hours

Current Status

Altitude 559.4 km
Velocity 7.59 km/s
Sub-Earth Point 24.83°N, 34.82°E
Launch Date May 14, 2023
Age 2.4 years
Type internet

Technical Details

Classification Payload
Mass 305.00 kg
Dry Mass 290.00 kg
Total Mass 305.00 kg
Length 0.20 m
Diameter 2.80 m
Span 9.00 m
Shape Box + pan
Manufacturer SPXS
Bus Type Starlink
Phase Status In Orbit
Owner/State SPXS/US

Large Constellations

Loading constellations...